This is the latest recevied weather packets stored in our database for station/object KGRR-WX. If no packets are shown the sender has not sent any weather packets the latest 10 day(s).
| Time | Temp. | Humidity | Pressure | Rain* | Wind** | Luminosity | Snow |
|---|---|---|---|---|---|---|---|
| 1777945507 | 17.78° C | 50% | 970.6 hPa | 0 mm | - | - | - |
| 1777944622 | 18.33° C | 50% | 970.6 hPa | 0 mm | - | - | - |
| 1777943708 | 17.78° C | 50% | 970.5 hPa | 0 mm | - | - | - |
| 1777942824 | 18.33° C | 50% | 970.5 hPa | 0 mm | - | - | - |
| 1777941907 | 18.33° C | 41% | 971.3 hPa | 0 mm | - | - | - |
| 1777941021 | 18.89° C | 40% | 971.9 hPa | 0 mm | - | - | - |
| 1777940106 | 19.44° C | 40% | 971.9 hPa | 0 mm | - | - | - |
| 1777939219 | 20° C | 40% | 971.9 hPa | 0 mm | - | - | - |
| 1777938306 | 20.56° C | 34% | 972.1 hPa | 0 mm | - | - | - |
| 1777937422 | 21.11° C | 34% | 971.9 hPa | 0 mm | - | - | - |
| 1777936506 | 21.67° C | 34% | 971.8 hPa | 0 mm | - | - | - |
| 1777935625 | 21.67° C | 34% | 971.8 hPa | 0 mm | - | - | - |
| 1777934706 | 22.22° C | 34% | 971.8 hPa | 0 mm | - | - | - |
| 1777933823 | 22.22° C | 34% | 972.2 hPa | 0 mm | - | - | - |
| 1777932906 | 22.22° C | 34% | 972.2 hPa | 0 mm | - | - | - |
| 1777932027 | 22.22° C | 34% | 972.2 hPa | 0 mm | - | - | - |
| 1777931105 | 22.22° C | 35% | 973.1 hPa | 0 mm | - | - | - |
| 1777930222 | 22.78° C | 35% | 973.1 hPa | 0 mm | - | - | - |
| 1777929305 | 22.22° C | 31% | 972 hPa | 0 mm | - | - | - |
| 1777928424 | 22.22° C | 31% | 972 hPa | 0 mm | - | - | - |
| 1777927510 | 22.22° C | 31% | 972.8 hPa | 0 mm | - | - | - |
| 1777926613 | 22.78° C | 31% | 972.8 hPa | 0 mm | - | - | - |
| 1777925710 | 22.78° C | 31% | 972.8 hPa | 0 mm | - | - | - |
| 1777924818 | 22.78° C | 35% | 972.1 hPa | 0 mm | - | - | - |
| 1777923910 | 22.78° C | 27% | 972.8 hPa | 0 mm | - | - | - |
* Rain latest hour (hover to see other rain measurements)
** Current wind speed in m/s (hover to see current wind gust speed)